[[{"header":{"parameterUnit":"m.s-1","parameterCategory":1,"la1":30.2991,"la2":30.254,"lo1":-89.0895,"lo2":-89.0444,"dy":0.0017,"dx":0.0017,"nx":28,"ny":28,"refTime":"2023-09-05T09:00:00:Z","depth":0,"parameterNumber":2,"parameterNumberName":"U-component_of_WINDS"},"data":[0,0,0,0,0,0,0,0,0,0,0,0,0,0,0,0,0,0,0,0,0,0,0,0,0,0,0,0,0,0,0,0,0,0,0,0,0,0,0,0,0,0,0,0,0,0,0,0,0,0,0,0,0,0,0,0,0,0,-3.0716,-3.0717,0,-3.0814,-3.0815,-3.0816,-3.0811,-3.081,-3.0808,-3.0807,-3.0905,-3.0909,-3.0913,0,0,0,0,0,0,0,0,0,0,0,0,0,-3.0523,-3.0526,-3.0716,-3.0717,-3.0719,-3.0814,-3.0815,-3.0816,-3.0811,-3.0809,-3.0808,-3.0806,-3.0904,-3.0908,-3.0913,0,0,0,0,0,0,0,0,0,0,0,0,0,-3.0612,-3.0528,-3.0716,-3.0727,-3.0729,-3.0813,-3.0815,-3.0817,-3.0812,-3.0809,-3.0807,-3.0805,-3.0902,-3.0908,-3.0914,-3.0992,0,0,-3.0932,-3.0934,0,0,0,0,0,0,0,0,-3.0607,-3.0619,-3.0725,-3.0727,-3.0729,-3.0798,-3.0783,-3.0875,-3.0812,-3.078,-3.0807,-3.0804,-3.0871,-3.0879,-3.0902,-3.0997,-3.1001,-3.0932,-3.0936,-3.0938,-3.094,0,0,0,0,0,0,0,-3.0601,-3.0615,-3.0755,-3.0726,-3.0729,-3.0727,-3.0737,-3.08,-3.0836,-3.0783,-3.0783,-3.0795,-3.0872,-3.0897,-3.0904,-3.1002,-3.0932,-3.0937,-3.0941,-3.0943,-3.1164,-3.1167,0,0,0,0,0,0,-3.0593,-3.061,-3.0752,-3.0758,-3.0662,-3.0732,-3.0744,-3.0778,-3.0835,-3.0842,-3.0796,-3.0794,-3.0888,-3.0898,-3.0908,-3.1002,-3.0938,-3.0944,-3.0947,-3.1162,-3.1165,-3.1167,0,0,0,0,0,0,-3.0588,-3.0605,-3.0748,-3.0684,-3.0702,-3.0738,-3.0776,-3.0781,-3.0806,-3.0846,-3.0852,-3.0815,-3.0886,-3.09,-3.0971,-3.1006,-3.0946,-3.0952,-3.1159,-3.1163,-3.1166,-3.1192,0,0,0,0,0,0,-3.0583,-3.0604,-3.0634,-3.0685,-3.0705,-3.081,-3.0778,-3.0785,-3.0816,-3.0814,-3.0865,-3.0871,-3.0886,-3.0962,-3.0977,-3.1013,-3.0956,-3.1156,-3.1161,-3.1165,-3.1188,-3.1196,-3.1203,0,0,0,0,0,-3.0576,-3.0638,-3.0636,-3.0653,-3.0744,-3.0812,-3.0824,-3.084,-3.0819,-3.085,-3.0875,-3.087,-3.1,-3.097,-3.0986,-3.1024,-3.1154,-3.116,-3.1165,-3.1185,-3.1194,-3.1202,0,0,0,0,0,0,-3.059,-3.0644,-3.0643,-3.0723,-3.0763,-3.0811,-3.085,-3.0849,-3.0895,-3.0891,-3.0909,-3.092,-3.0991,-3.1015,-3.098,-3.1102,-3.1074,-3.1083,-3.1084,-3.1093,-3.11,-3.1093,-3.0961,0,0,0,0,0,-3.0603,-3.0653,-3.0698,-3.0764,-3.0784,-3.0814,-3.0844,-3.0853,-3.0894,-3.0911,-3.0942,-3.0982,-3.1031,-3.1064,-3.1112,-3.1192,-3.1202,-3.1226,-3.1233,-3.1239,-3.1246,-3.1289,-3.13,-3.1185,-3.1185,-3.1185,0,0,-3.0629,-3.0665,-3.0696,-3.0768,-3.08,-3.0851,-3.0828,-3.0883,-3.0921,-3.0919,-3.0988,-3.1012,-3.1058,-3.1134,-3.1169,-3.1155,-3.128,-3.1246,-3.125,-3.1254,-3.1295,-3.1306,-3.1316,-3.1188,-3.1188,-3.1187,0,0,-3.0702,-3.0735,-3.0793,-3.0826,-3.0875,-3.0894,-3.0908,-3.0956,-3.0972,-3.1042,-3.1041,-3.1086,-3.1172,-3.1204,-3.1232,-3.1317,-3.1313,-3.1333,-3.137,-3.1411,-3.142,-3.1428,-3.1458,-3.1468,-3.134,-3.134,-3.134,0,-3.0728,-3.0806,-3.0823,-3.0879,-3.091,-3.0911,-3.097,-3.1,-3.1062,-3.1083,-3.1068,-3.1175,-3.1206,-3.1289,-3.131,-3.1333,-3.1348,-3.1326,-3.1418,-3.1426,-3.1434,-3.1462,-3.1473,-3.1342,-3.1341,-3.1341,-3.1341,0,-3.0835,-3.0889,-3.093,-3.099,-3.1026,-3.1083,-3.1108,-3.1142,-3.1148,-3.1168,-3.1239,-3.1276,-3.1331,-3.1352,-3.1358,-3.1435,-3.1426,-3.1414,-3.1386,-3.1446,-3.1473,-3.1484,-3.1344,-3.1344,-3.1343,-3.1343,0,0,-3.092,-3.0988,-3.1003,-3.103,-3.1083,-3.1125,-3.1182,-3.1236,-3.1265,-3.1307,-3.1354,-3.1427,-3.1416,-3.1448,-3.1458,-3.1494,-3.1558,-3.1478,-3.1479,-3.149,-3.1644,-3.1651,-3.1663,-3.1556,-3.1559,-3.156,-3.1639,0,-3.0998,-3.1099,-3.1115,-3.1203,-3.1253,-3.1254,-3.1303,-3.1341,-3.1362,-3.1406,-3.1429,-3.1479,-3.1462,-3.1481,-3.1518,-3.1543,-3.1589,-3.1537,-3.1599,-3.1601,-3.1586,-3.1678,-3.1686,-3.1759,-3.165,-3.1652,-3.1653,0,-3.1103,-3.1148,-3.1241,-3.1287,-3.1308,-3.1352,-3.1403,-3.1446,-3.1488,-3.1501,-3.1536,-3.1541,-3.1599,-3.1569,-3.1648,-3.1613,-3.1639,-3.1655,-3.1659,-3.1664,-3.163,-3.1684,-3.1782,-3.1793,-3.167,-3.1669,-3.1667,0,-3.1153,-3.1238,-3.1304,-3.1327,-3.1383,-3.1413,-3.1438,-3.1479,-3.151,-3.1554,-3.1575,-3.1625,-3.1652,-3.1691,-3.1709,-3.1686,-3.1787,-3.1759,-3.1798,-3.1797,-3.1818,-3.1816,-3.192,-3.1837,-3.1837,-3.1837,-3.1836,0,-3.1238,-3.1295,-3.1327,-3.1368,-3.1431,-3.1449,-3.1511,-3.1535,-3.1571,-3.1615,-3.162,-3.1661,-3.1684,-3.1729,-3.1744,-3.1806,-3.1819,-3.1829,-3.1832,-3.1828,-3.1827,-3.1845,-3.184,-3.1839,-3.1839,-3.1838,-3.1838,0,-3.1305,-3.133,-3.1402,-3.1449,-3.1462,-3.1506,-3.1546,-3.1585,-3.1605,-3.1661,-3.1676,-3.1708,-3.176,-3.1783,-3.1848,-3.1858,-3.1929,-3.1929,-3.1915,-3.1915,-3.1952,-3.1948,-3.2071,-3.2087,-3.1994,-3.1995,-3.1996,0,-3.1357,-3.1401,-3.1452,-3.1482,-3.1508,-3.1557,-3.1589,-3.1608,-3.1641,-3.1693,-3.1725,-3.1778,-3.1822,-3.1906,-3.1934,-3.1984,-3.1984,-3.2024,-3.1991,-3.1985,-3.1983,-3.198,-3.1983,-3.2029,-3.203,-3.2031,-3.2031,0,-3.1447,-3.1456,-3.1502,-3.1553,-3.1591,-3.1631,-3.1671,-3.1695,-3.1721,-3.1758,-3.1812,-3.1845,-3.1911,-3.1963,-3.2015,-3.2039,-3.2039,-3.2042,-3.2053,-3.2048,-3.2038,-3.2043,-3.1929,-3.2038,-3.2038,-3.2037,-3.2037,-3.2036,-3.1507,-3.1545,-3.1587,-3.1638,-3.167,-3.1706,-3.1745,-3.177,-3.1816,-3.1871,-3.188,-3.1938,-3.1978,-3.2047,-3.2073,-3.2118,-3.2108,-3.2125,-3.2129,-3.2132,-3.2134,-3.2032,-3.2127,-3.2127,-3.2127,-3.2127,-3.2127,0,-3.1595,-3.1622,-3.1669,-3.1724,-3.1764,-3.1761,-3.1805,-3.1838,-3.1888,-3.1927,-3.1969,-3.2031,-3.2081,-3.2113,-3.2164,-3.2193,-3.2195,-3.2206,-3.2203,-3.2209,-3.214,-3.2125,-3.2204,-3.2204,-3.2204,-3.2204,-3.2204,-3.2204,-3.1646,-3.171,-3.1724,-3.1804,-3.183,-3.1887,-3.1912,-3.1945,-3.1975,-3.2044,-3.2086,-3.2107,-3.2142,-3.2196,-3.2241,-3.2249,-3.2267,-3.2279,-3.2286,-3.2222,-3.2214,-3.2206,-3.2191,-3.2283,-3.2283,-3.2351,-3.2351,-3.2352]},{"header":{"parameterUnit":"m.s-1","parameterCategory":1,"la1":30.2991,"la2":30.254,"lo1":-89.0895,"lo2":-89.0444,"dy":0.0017,"dx":0.0017,"nx":28,"ny":28,"refTime":"2023-09-05T09:00:00:Z","depth":0,"parameterNumber":3,"parameterNumberName":"V-component_of_WINDS"},"data":[0,0,0,0,0,0,0,0,0,0,0,0,0,0,0,0,0,0,0,0,0,0,0,0,0,0,0,0,0,0,0,0,0,0,0,0,0,0,0,0,0,0,0,0,0,0,0,0,0,0,0,0,0,0,0,0,0,0,3.924,3.924,0,3.9248,3.9248,3.9248,3.9172,3.9169,3.9167,3.9165,3.9172,3.9174,3.9176,0,0,0,0,0,0,0,0,0,0,0,0,0,3.9158,3.916,3.924,3.924,3.924,3.9248,3.9248,3.9248,3.9172,3.9169,3.9167,3.9164,3.9171,3.9174,3.9176,0,0,0,0,0,0,0,0,0,0,0,0,0,3.9182,3.916,3.924,3.9203,3.92,3.9248,3.9248,3.9248,3.9172,3.9169,3.9166,3.9163,3.9171,3.9174,3.9177,3.926,0,0,3.9187,3.9188,0,0,0,0,0,0,0,0,3.9181,3.9186,3.9209,3.9206,3.9202,3.9205,3.9221,3.9252,3.9173,3.9183,3.9165,3.9162,3.9186,3.9187,3.9196,3.926,3.926,3.9187,3.9189,3.919,3.9191,0,0,0,0,0,0,0,3.918,3.9185,3.9243,3.9209,3.9205,3.9186,3.9186,3.9227,3.9202,3.9182,3.9176,3.9178,3.9183,3.9193,3.9195,3.926,3.9187,3.919,3.9192,3.9193,3.9391,3.9394,0,0,0,0,0,0,3.9183,3.9184,3.9243,3.9243,3.9184,3.919,3.919,3.9208,3.9201,3.9197,3.9181,3.9175,3.9189,3.9192,3.9195,3.929,3.919,3.9193,3.9195,3.9388,3.9392,3.9396,0,0,0,0,0,0,3.9182,3.9189,3.9243,3.9212,3.9217,3.9195,3.9215,3.921,3.9219,3.9201,3.9196,3.9195,3.9187,3.9191,3.9244,3.9289,3.9195,3.9198,3.9384,3.9389,3.9394,3.9481,0,0,0,0,0,0,3.918,3.9189,3.9221,3.9213,3.9219,3.9292,3.9218,3.9212,3.9225,3.9217,3.9213,3.9209,3.9184,3.924,3.9247,3.9292,3.92,3.938,3.9386,3.9392,3.9474,3.9489,3.9501,0,0,0,0,0,3.9177,3.9245,3.9223,3.923,3.9259,3.9294,3.9298,3.9268,3.9229,3.926,3.9248,3.9209,3.9284,3.9246,3.9253,3.93,3.9377,3.9384,3.9392,3.9468,3.9486,3.9501,0,0,0,0,0,0,3.9258,3.9244,3.9218,3.9287,3.9292,3.9282,3.932,3.9288,3.9305,3.9297,3.9259,3.9259,3.9318,3.9315,3.9272,3.9379,3.9323,3.9333,3.9378,3.9395,3.9408,3.9407,3.9203,0,0,0,0,0,3.9284,3.9315,3.93,3.9362,3.9366,3.9343,3.9357,3.9334,3.9339,3.9341,3.9333,3.9338,3.9362,3.9379,3.9401,3.9474,3.9471,3.951,3.9524,3.9535,3.9542,3.9579,3.9596,3.942,3.942,3.942,0,0,3.9338,3.9333,3.9355,3.9378,3.938,3.9411,3.9345,3.9382,3.9405,3.9346,3.9395,3.939,3.9393,3.9456,3.9484,3.9455,3.9591,3.9544,3.9553,3.9555,3.9589,3.9605,3.962,3.9425,3.9424,3.9424,0,0,3.9451,3.9452,3.9502,3.9505,3.9509,3.9493,3.9505,3.9499,3.9493,3.9542,3.9498,3.9525,3.9568,3.9572,3.9579,3.9694,3.9658,3.9703,3.9771,3.9808,3.9822,3.9833,3.9872,3.9887,3.9711,3.9711,3.9711,0,3.9516,3.9563,3.9532,3.9571,3.9582,3.9531,3.958,3.9585,3.9595,3.9604,3.9572,3.9624,3.9623,3.9685,3.9714,3.9722,3.9734,3.9701,3.9822,3.9834,3.9845,3.9881,3.9896,3.9716,3.9716,3.9715,3.9715,0,3.9642,3.9675,3.9716,3.9727,3.9742,3.9787,3.9761,3.9781,3.9757,3.9744,3.9794,3.9791,3.981,3.9824,3.9801,3.9883,3.9865,3.9829,3.9771,3.9867,3.99,3.9914,3.9724,3.9722,3.972,3.9719,0,0,3.9805,3.9799,3.9814,3.9817,3.9818,3.9842,3.9884,3.9903,3.9919,3.9929,3.9962,4.0,3.9966,3.9975,3.9952,3.9984,4.0073,3.9943,3.9943,3.9965,4.016,4.0185,4.0202,4.005,4.0053,4.0055,4.0159,0,3.9913,3.9984,3.9957,4.003,4.0059,4.0011,4.0047,4.0051,4.0041,4.0063,4.0052,4.0078,4.0033,4.0037,4.0067,4.0056,4.0111,4.0048,4.0079,4.008,4.0076,4.022,4.0247,4.0346,4.0172,4.0174,4.0176,0,4.0048,4.0063,4.0138,4.0132,4.0143,4.0176,4.0191,4.0214,4.0217,4.0207,4.0217,4.0187,4.0227,4.0172,4.0225,4.0183,4.0195,4.0191,4.0194,4.0193,4.0132,4.0221,4.0377,4.039,4.0197,4.0195,4.0194,0,4.0156,4.0195,4.0244,4.0249,4.0244,4.0268,4.0267,4.0267,4.028,4.0293,4.0301,4.0319,4.0328,4.0342,4.0317,4.028,4.0374,4.0317,4.0365,4.0366,4.0385,4.0383,4.0542,4.0397,4.0397,4.0397,4.0396,0,4.0278,4.0325,4.0292,4.0322,4.0374,4.0343,4.0394,4.0388,4.0389,4.0416,4.0377,4.0403,4.037,4.0394,4.0375,4.0421,4.0426,4.0418,4.0412,4.042,4.0421,4.0425,4.0416,4.04,4.04,4.0399,4.0398,0,4.0406,4.0386,4.0436,4.0428,4.0427,4.0465,4.0456,4.0484,4.0471,4.0506,4.0513,4.0492,4.0518,4.0495,4.052,4.0507,4.0568,4.0553,4.0566,4.0561,4.0609,4.0604,4.0774,4.0793,4.0639,4.064,4.0642,0,4.0484,4.0519,4.0514,4.0529,4.0531,4.0557,4.0569,4.054,4.0555,4.0561,4.0587,4.0609,4.0625,4.0668,4.0655,4.0673,4.0657,4.0716,4.066,4.0666,4.0655,4.0652,4.0655,4.0726,4.0728,4.0729,4.0731,0,4.0623,4.0611,4.0631,4.0648,4.0664,4.0675,4.0684,4.0699,4.0669,4.0687,4.0713,4.0725,4.075,4.0772,4.0786,4.0784,4.0752,4.0749,4.076,4.0767,4.0773,4.0768,4.0594,4.0744,4.0743,4.0742,4.0741,4.0741,4.0726,4.0755,4.0755,4.0778,4.0781,4.079,4.0815,4.0805,4.0825,4.0843,4.0825,4.0855,4.0857,4.0873,4.0875,4.0898,4.0873,4.0891,4.0895,4.0899,4.0905,4.0771,4.0901,4.09,4.09,4.09,4.0899,0,4.0861,4.0859,4.0881,4.0893,4.0911,4.0881,4.0888,4.0905,4.0932,4.0937,4.0953,4.0981,4.1003,4.0992,4.101,4.103,4.1016,4.1035,4.1032,4.1032,4.0927,4.0914,4.1047,4.1047,4.1047,4.1047,4.1047,4.1047,4.0933,4.0979,4.0967,4.1014,4.1011,4.104,4.1047,4.1054,4.1057,4.1091,4.1108,4.1101,4.1099,4.1116,4.1134,4.113,4.1137,4.1162,4.1153,4.1054,4.104,4.1026,4.1013,4.1165,4.1165,4.1256,4.1257,4.1257]}]]